Погода в Плодовитом

Россия / Республика Калмыкия     48°08′22″N   44°24′38″E
темп.,
°C
ветер,
м/с
пор.,
м/с
влажн.,
%
обл.,
%
осадки,
мм/ч
давл.,
гПа
погр.,
м
23 октября, сб
сб2300:00+11зюз511645 0.0 1017201
03:00+10зюз49775 0.0 1017159
06:00+9зюз498995 0.0 1017148
09:00+14зюз696860 0.0 1018298
12:00+18зюз675397 0.0 1018718
15:00+18юз6750100 0.0 1016969
18:00+15юз4661100 0.0 1016112
21:00+14юз4964100 0.0 1016195
24 октября, вс
вс2400:00+13з4870100 0.0 1016185
03:00+12сз3674100 0.0 1016221
06:00+12сз3678100 0.0 1017367
09:00+12сз4571100 0.0 1018476
12:00+14сз4452100 0.0 10181107
15:00+14ссз4439100 0.0 10171284
18:00+12ссз3640100 0.0 1017247
21:00+10сз4546100 0.1 1018672
25 октября, пн
пн2500:00+9сз5753100 0.1 10181279
03:00+8зсз4649100 0.1 1017488
06:00+7зсз585697 0.0 1018372
09:00+6зсз7867100 0.0 1020594
12:00+4сз6889100 0.1 1020820
15:00+6ссз8952100 0.2 10221474
18:00+4ссз71057100 0.0 10251440
21:00+4ссз71058100 0.0 1027966
26 октября, вт
вт2600:00+3ссз7106526 0.0 1028710
03:00+1сз510717 0.0 1030308
06:00+1сз596961 0.0 1031309
09:00+3с57535 0.0 1032609
12:00+6с45340 0.0 1032935
15:00+7с34240 0.0 1031991
18:00+4с11290 0.0 103211
21:00+3сз22335 0.0 103216
27 октября, ср
ср2700:00+2зсз12382 0.0 103310
03:00+1з22375 0.0 103210
06:00+1зюз22370 0.0 103210
09:00+5ююз34275 0.0 1032227
12:00+9ююз34205 0.0 1031760
15:00+10ю44205 0.0 1028889
18:00+6ю462834 0.0 102883
21:00+4ю473371 0.0 1027120